Monroe, WI

4:07 AM CDT on October 16, 2019 (GMT -0500)
Monroe Municipal

Weather History for KEFT - September, 2019

Change the Weather History Date:

Saturday, September 21, 2019

  Actual Average Record
Temperature  
Mean Temperature 71 °F -  
Max Temperature 73 °F 0 °F 87 °F (2005)
Min Temperature 69 °F - 39 °F (1999)
Cooling Degree Days 6    
Growing Degree Days 21 (Base 50)    
Moisture  
Dew Point 69 °F    
Average Humidity 93    
Maximum Humidity 97    
Minimum Humidity 78    
Precipitation  
Precipitation 0.16 in - - ()
Sea Level Pressure  
Sea Level Pressure 30.01 in    
Wind  
Wind Speed 12 mph (South)    
Max Wind Speed 21 mph    
Max Gust Speed 25 mph    
Visibility 9 miles    
Events Rain , Thunderstorm    
Averages and records for this station are not official NWS values.
T = Trace of Precipitation, MM = Missing Value Source: NWS Daily Summary

Daily Weather History Graph

Daily Weather History Graph

Search for Another Location

Airport or City:

Astronomy

Sep. 21, 2019 Rise Set
Actual Time 6:44 AM CDT 6:57 PM CDT
Civil Twilight 6:16 AM CDT 7:25 PM CDT
Nautical Twilight 5:43 AM CDT 7:58 PM CDT
Astronomical Twilight 5:09 AM CDT 8:32 PM CDT
Moon 11:26 PM CDT (9/21) 1:58 PM CDT (9/21)
Length of Visible Light 13h 09m
Length of Day
12h 13m
Waning Gibbous, 54% of the Moon is Illuminated
Sep 21
Waning Gibbous
Sep 21
Last Quarter
Sep 28
New
Oct 5
First Quarter
Oct 13
Full

Hourly Weather History & Observations

Time (CDT) Temp. Dew Point Humidity Pressure Visibility Wind Dir Wind Speed Gust Speed Precip Events Conditions
12:15 AM 73.4 °F 66.0 °F 78% 30.07 in 10.0 mi South 9.2 mph - N/A   Clear
12:35 AM 72.5 °F 66.2 °F 81% 30.06 in 10.0 mi South 10.4 mph - N/A   Clear
12:55 AM 71.8 °F 66.2 °F 83% 30.06 in 10.0 mi South 8.1 mph - N/A   Clear
1:15 AM 71.6 °F 66.2 °F 83% 30.06 in 10.0 mi South 9.2 mph - N/A   Clear
1:35 AM 71.6 °F 66.2 °F 83% 30.06 in 10.0 mi South 8.1 mph - N/A   Clear
1:55 AM 71.1 °F 66.2 °F 85% 30.06 in 10.0 mi South 8.1 mph - N/A   Clear
2:15 AM 70.9 °F 66.4 °F 86% 30.05 in 10.0 mi South 9.2 mph - N/A   Clear
2:35 AM 70.3 °F 67.3 °F 90% 30.05 in 10.0 mi South 8.1 mph - N/A   Clear
2:55 AM 70.5 °F 67.5 °F 90% 30.05 in 10.0 mi South 6.9 mph - N/A   Clear
3:15 AM 70.7 °F 67.6 °F 90% 30.05 in 10.0 mi South 9.2 mph - N/A   Clear
3:35 AM 69.8 °F 67.5 °F 92% 30.05 in 10.0 mi South 9.2 mph - N/A   Clear
3:55 AM 69.8 °F 67.3 °F 92% 30.05 in 10.0 mi South 8.1 mph - N/A   Clear
4:15 AM 69.6 °F 67.5 °F 93% 30.05 in 10.0 mi South 9.2 mph - N/A   Clear
4:35 AM 70.2 °F 67.5 °F 91% 30.05 in 10.0 mi South 9.2 mph - N/A   Clear
4:55 AM 69.8 °F 67.5 °F 92% 30.05 in 10.0 mi South 11.5 mph - N/A   Clear
5:15 AM 69.8 °F 67.5 °F 92% 30.05 in - South 13.8 mph - N/A   Unknown
5:35 AM - - N/A% 30.05 in 10.0 mi South 12.7 mph - N/A   Clear
5:55 AM - - N/A% 30.04 in 10.0 mi South 15.0 mph - N/A   Scattered Clouds
6:15 AM - - N/A% 30.04 in 10.0 mi South 11.5 mph - N/A   Clear
6:35 AM - - N/A% 30.04 in 10.0 mi South 15.0 mph 20.7 mph N/A   Scattered Clouds
6:55 AM - - N/A% 30.03 in 10.0 mi South 15.0 mph - N/A   Scattered Clouds
7:15 AM - - N/A% 30.04 in 7.0 mi South 12.7 mph 18.4 mph N/A   Mostly Cloudy
7:35 AM - - N/A% 30.04 in 10.0 mi South 15.0 mph 19.6 mph N/A   Mostly Cloudy
7:55 AM - - N/A% 30.03 in 10.0 mi South 16.1 mph 20.7 mph N/A   Overcast
8:15 AM - - N/A% 30.03 in 10.0 mi South 15.0 mph 20.7 mph N/A   Overcast
8:35 AM - - N/A% 30.03 in 7.0 mi South 15.0 mph 24.2 mph N/A   Overcast
8:55 AM - - N/A% 30.03 in 10.0 mi South 16.1 mph 20.7 mph N/A   Overcast
9:15 AM - - N/A% 30.03 in 10.0 mi South 18.4 mph 25.3 mph N/A   Overcast
9:35 AM - - N/A% 30.03 in 10.0 mi SSW 20.7 mph 25.3 mph N/A   Overcast
9:55 AM - - N/A% 30.03 in 10.0 mi SSW 17.3 mph 24.2 mph N/A   Overcast
10:15 AM - - N/A% 30.04 in 10.0 mi South 17.3 mph 21.9 mph N/A   Overcast
10:35 AM - - N/A% 30.03 in 5.0 mi SSW 13.8 mph 23.0 mph N/A   Haze
10:55 AM 70.7 °F 69.1 °F 95% 30.02 in 5.0 mi South 16.1 mph 20.7 mph N/A Rain Rain
11:15 AM 70.3 °F 69.1 °F 96% 30.02 in 4.0 mi South 17.3 mph 23.0 mph 0.05 in Rain Rain
11:35 AM 70.2 °F 69.1 °F 96% 30.02 in 5.0 mi SSW 18.4 mph 24.2 mph 0.12 in Rain Light Rain
11:55 AM 70.3 °F 69.1 °F 96% 30.01 in 10.0 mi SSW 18.4 mph 24.2 mph 0.13 in Rain Light Rain
12:15 PM 70.3 °F 69.1 °F 96% 30.02 in 10.0 mi SSW 16.1 mph 23.0 mph N/A   Overcast
12:55 PM 70.9 °F 69.8 °F 96% 30.01 in 10.0 mi SSW 15.0 mph 20.7 mph N/A   Overcast
1:15 PM 71.1 °F 69.8 °F 96% 30.00 in 10.0 mi South 15.0 mph 23.0 mph N/A   Overcast
1:35 PM 71.6 °F 69.8 °F 94% 30.00 in 10.0 mi SSW 15.0 mph 21.9 mph N/A Thunderstorm Overcast
1:55 PM 71.6 °F 69.8 °F 94% 30.00 in 10.0 mi SSW 16.1 mph 23.0 mph N/A   Overcast
2:15 PM 71.6 °F 70.0 °F 95% 29.98 in 10.0 mi South 13.8 mph - N/A   Overcast
2:35 PM 71.6 °F 70.0 °F 95% 29.98 in 10.0 mi SSW 12.7 mph 19.6 mph N/A   Overcast
2:55 PM 71.6 °F 69.8 °F 94% 29.98 in 10.0 mi South 15.0 mph 21.9 mph N/A   Drizzle
3:15 PM 71.6 °F 70.2 °F 95% 29.98 in 10.0 mi South 13.8 mph 19.6 mph N/A   Overcast
3:35 PM 72.0 °F 70.7 °F 96% 29.98 in 10.0 mi SSW 15.0 mph 20.7 mph N/A   Overcast
3:55 PM 72.0 °F 70.5 °F 95% 29.98 in 10.0 mi SSW 12.7 mph - N/A   Overcast
4:15 PM 72.0 °F 70.7 °F 96% 29.97 in 10.0 mi South 12.7 mph - N/A Rain Light Rain
4:35 PM 72.1 °F 70.9 °F 96% 29.96 in 7.0 mi South 9.2 mph - N/A   Overcast
4:55 PM 72.1 °F 70.9 °F 96% 29.97 in 7.0 mi South 11.5 mph - N/A   Overcast
5:15 PM 72.3 °F 71.1 °F 96% 29.97 in 7.0 mi South 11.5 mph - N/A   Overcast
5:35 PM 72.5 °F 71.6 °F 97% 29.96 in 7.0 mi South 11.5 mph - N/A   Mostly Cloudy
5:55 PM 72.7 °F 71.6 °F 96% 29.96 in 7.0 mi South 13.8 mph - N/A   Mostly Cloudy
6:15 PM 72.9 °F 71.6 °F 96% 29.96 in 7.0 mi South 13.8 mph 19.6 mph N/A Rain Light Rain
6:35 PM 72.5 °F 71.1 °F 95% 29.96 in 7.0 mi South 13.8 mph - 0.01 in Rain Rain
6:55 PM 72.1 °F 70.9 °F 96% 29.96 in 10.0 mi SSW 12.7 mph 23.0 mph 0.02 in   Drizzle
7:15 PM 72.3 °F 71.1 °F 96% 29.97 in 10.0 mi SSW 13.8 mph 19.6 mph N/A   Overcast
7:35 PM 72.1 °F 71.1 °F 96% 29.96 in 10.0 mi South 13.8 mph 18.4 mph N/A   Light Drizzle
7:55 PM 72.1 °F 71.1 °F 96% 29.97 in 10.0 mi South 13.8 mph 20.7 mph 0.01 in   Overcast
8:15 PM 72.0 °F 70.7 °F 96% 29.97 in 10.0 mi SSW 16.1 mph 25.3 mph N/A   Overcast
8:35 PM 71.6 °F 70.3 °F 96% 29.97 in 10.0 mi SSW 15.0 mph 20.7 mph N/A   Overcast
8:55 PM 71.6 °F 70.2 °F 95% 29.97 in 10.0 mi SSW 16.1 mph 20.7 mph N/A   Mostly Cloudy
9:15 PM 71.6 °F 70.3 °F 96% 29.97 in 10.0 mi SSW 15.0 mph 23.0 mph N/A   Overcast
9:35 PM 71.4 °F 70.3 °F 96% 29.97 in 10.0 mi SSW 17.3 mph 23.0 mph N/A   Overcast
9:55 PM 71.1 °F 70.0 °F 96% 29.96 in 10.0 mi SSW 19.6 mph 25.3 mph N/A   Overcast
10:15 PM 70.9 °F 69.8 °F 96% 29.97 in 10.0 mi SSW 18.4 mph 21.9 mph N/A   Light Drizzle
10:35 PM 70.9 °F 69.8 °F 96% 29.97 in 10.0 mi SSW 15.0 mph 20.7 mph N/A   Overcast
10:55 PM 70.9 °F 69.8 °F 96% 29.96 in 10.0 mi SSW 18.4 mph 25.3 mph N/A   Overcast
11:15 PM 70.9 °F 69.8 °F 96% 29.96 in 10.0 mi SSW 19.6 mph 24.2 mph N/A   Overcast
11:35 PM 70.9 °F 69.8 °F 96% 29.95 in 10.0 mi SSW 20.7 mph 24.2 mph N/A   Overcast
11:55 PM 70.9 °F 69.8 °F 96% 29.93 in 10.0 mi SSW 16.1 mph 24.2 mph N/A   Overcast